Regional Weather Roundup
Issued by NWS

Home | Current Version | Previous Version | Graphics & Text | Print | Product List | Glossary On
Versions: 1 2 3 4 5 6 7 8 9 10 11 12 13 14 15 16 17 18 19 20 21 22 23 24 25 26 27
000
ASUS45 KTFX 301510
RWRMT
MONTANA REGIONAL WEATHER ROUNDUP
NATIONAL WEATHER SERVICE GREAT FALLS MT
900 AM MDT SUN APR 30 2017

NOTE: "FAIR" INDICATES FEW OR NO CLOUDS BELOW 12000 FEET WITH NO
SIGNIFICANT WEATHER AND/OR OBSTRUCTIONS TO VISIBILITY.

MTZ001>007-043-301600-
WEST OF THE DIVIDE

CITY           SKY/WX    TMP DP  RH WIND       PRES   REMARKS
KALISPELL      CLOUDY    43  39  86 S13       29.97F
MISSOULA       CLOUDY    49  35  58 NW5       30.03S
BUTTE          CLOUDY    45  22  40 W5        30.04S
MULLAN PASS    SNOW      32  32 100 VRB6      29.97S VSB<1/4 WCI  26
ANACONDA         N/A     46  25  42 CALM      30.02S
DEER LODGE       N/A     46  30  53 CALM      30.04R
EUREKA           N/A     45  34  65 SE9       29.97S
HAMILTON         N/A     48  34  57 S10       30.05R
LIBBY            N/A     45  37  76 S6        29.97S
PLAINS           N/A     48  35  60 S3        30.01
$$

MTZ008-052>055-301600-
SOUTHWEST MONTANA

CITY           SKY/WX    TMP DP  RH WIND       PRES   REMARKS
BOZEMAN        CLOUDY    46  34  62 E6        30.02F
DILLON         CLOUDY    44  26  49 SW12      30.05S
W YELLOWSTONE  CLOUDY    37  21  52 SW15G23   30.12S WCI  28
THREE FORKS      N/A     47  47 100 NE2       30.01F
TWIN BRIDGES     N/A     47  25  42 SE5       30.04
$$

MTZ009-010-012-014-046-048-049-054-301600-
EAST SLOPES AND CENTRAL MONTANA

CITY           SKY/WX    TMP DP  RH WIND       PRES   REMARKS
CUT BANK       CLOUDY    44  32  62 W28G33    29.87R
GREAT FALLS    CLOUDY    48  31  51 SW15G23   29.94R
MALMSTROM AFB  PTSUNNY   49  32  53 SW25G31   29.93F
HELENA         CLOUDY    47  34  60 CALM      29.99S
AUGUSTA        PTSUNNY   43  33  68 SW16      29.92F
BOWMANS CRNR     N/A     44  30  58 SW21      29.92S
CHOTEAU          N/A     45  32  61 S7        29.93F
FAIRFIELD      PTSUNNY   46  31  58 SW15      29.92S
POWER            N/A     46  33  60 SW15      29.91S
RAYNESFORD     PTSUNNY   48  32  53 SW16G26   29.93F
ULM            PTSUNNY   48  33  55 SW12      29.95R
$$

MTZ011-013-016-021-045-047-050-051-301600-
NORTH CENTRAL MONTANA

CITY           SKY/WX    TMP DP  RH WIND       PRES   REMARKS
HAVRE          CLOUDY    47  35  63 SW14      29.88F
LEWISTOWN      CLOUDY    47  33  58 W8        29.95S
CHINOOK          N/A     45  37  76 CALM      29.89F
DENTON         PTSUNNY   48  35  61 W20G29    29.90S
FORT BENTON      N/A    N/A N/A N/A MISG      29.91F
GEYSER         PTSUNNY   48  32  54 W22G32    29.91S
GRASS RANGE      N/A     49  36  61 W6        29.92S
JUDITH GAP     CLOUDY    43  33  67 SW15      29.96S
STANFORD       PTSUNNY   47  33  59 W17       29.93F
WINIFRED       PTSUNNY   48  33  55 W18       29.91F
$$

MTZ017>020-022>027-061-062-301600-
NORTHEAST MONTANA

CITY           SKY/WX    TMP DP  RH WIND       PRES   REMARKS
GLASGOW        CLOUDY    53  30  41 S12G18    29.90F
JORDAN           N/A     53  29  39 SW20      29.92F
SIDNEY         SUNNY     49  30  48 S9        30.01F
WOLF POINT     SUNNY     54  24  31 S6        29.95F
MALTA          SUNNY     45  39  81 W3        29.89
PLENTYWOOD       N/A     50  27  40 SE10      29.96F
POPLAR           N/A     52  21  30 S10       29.96F
SCOBEY           N/A     51  27  39 SE8       29.91F
$$

MTZ028>42-056>058-301600-
SOUTHCENTRAL AND SOUTHEAST MONTANA

CITY           SKY/WX    TMP DP  RH WIND       PRES   REMARKS
BILLINGS       PTSUNNY   47  29  49 SW14      29.98S
LIVINGSTON     CLOUDY    45  32  60 W8        30.01F
MILES CITY     MOSUNNY   46  26  45 SE12      29.99F
BIG TIMBER     PTSUNNY   48  32  53 W22       30.01S
EKALAKA          N/A     50  17  27 S6        29.99
LAUREL           N/A     48  27  44 S13       29.98F
ROUNDUP          N/A     44  31  60 S10       29.89F
$$

REGIONAL REPORTS...DAKOTAS

CITY           SKY/WX    TMP DP  RH WIND       PRES   REMARKS
WILLISTON      MOSUNNY   51  28  41 S8        30.01F
MINOT          SUNNY     58  24  27 S9        30.01F
DICKINSON      SUNNY     52  24  33 VRB3      30.01F
BEACH            N/A     54  19  26 S12G20    30.04F
TIOGA            N/A     54  23  30 SW17      30.01F
WATFORD CITY     N/A     54  27  35 SW8       30.01F
BISMARCK       SUNNY     50  29  44 CALM      30.07F
GRAND FORKS    MOSUNNY   51  32  48 S8        30.12F
FARGO          CLOUDY    51  21  30 E9        30.11F
BUFFALO SD       N/A     49  25  39 SW3       29.96F
RAPID CITY     SUNNY     49  23  36 N14       30.01F
$$

REGIONAL REPORTS...WYOMING/IDAHO/WASHINGTON

CITY           SKY/WX    TMP DP  RH WIND       PRES   REMARKS
GILLETTE       SUNNY     36  28  73 S8        30.01F WCI  30
SHERIDAN       SUNNY     39  26  59 CALM      30.00F
BUFFALO WY     SUNNY     42  20  41 SW5       30.01F
CODY           MOSUNNY   42  29  59 N5        30.04F
YELLOWSTONE LA   N/A     30  21  69 CALM      30.14F
IDAHO FALLS    MOSUNNY   44  31  60 SW16      30.12S
SALMON         CLOUDY    45  32  61 W15       30.06R
BOISE          CLOUDY    49  34  56 CALM      30.15R
SPOKANE        PTSUNNY   48  39  71 SW15      30.01S
$$

REGIONAL REPORTS...ALBERTA

CITY           SKY/WX    TMP DP  RH WIND       PRES   REMARKS
EDMONTON       PTSUNNY   45  36  70 SE3       29.77S
CALGARY        MOSUNNY   48  25  40 W12G18    29.77R
LETHBRIDGE     PTSUNNY   48  34  57 W28G36    29.80F
MEDICINE HAT   CLOUDY    50  36  57 SW14G21   29.80F
CARDSTON         N/A     45  32  61 SW8         N/A
MILK RIVER       N/A     48  34  57 W24G33      N/A
ONEFOUR          N/A     50  32  50 W13         N/A
$$

REGIONAL REPORTS...SASKATCHEWAN

CITY           SKY/WX    TMP DP  RH WIND       PRES   REMARKS
SWIFT CURRENT  CLOUDY    48  39  71 S8G20     29.83F
REGINA         CLOUDY    50  41  71 SE9       29.91F
SASKATOON      PTSUNNY   50  39  66 E10       29.87F
CYPRESS HILLS    N/A     41  32  70 SW6         N/A
VAL MARIE        N/A     43  34  70 S6          N/A
ROCKGLEN         N/A     50  34  53 S14         N/A
ASSINIBOIA       N/A     43  37  81 E7          N/A
$$




USA.gov is the U.S. government's official web portal to all federal, state and local government web resources and services.